Location: College Park
(38.9810°N, 76.9370°W)
Time: 08:46:57
(UTC-05:00)

N. Korean satellite - Pass Details

Date: 04 January 2018
Orbit: 459 x 515 km, 97.2° (Epoch: 17 January)

Event Time Altitude Azimuth Distance (km) Brightness Sun altitude
Rises 06:51:40 0° 11° (N) 2,531 10.1 -7.0°
Reaches altitude 10° 06:53:45 10° 11° (N) 1,640 9.1 -6.6°
Maximum altitude 06:57:16 89° 283° (WNW) 471 6.5 -6.0°
Drops below altitude 10° 07:00:43 10° 193° (SSW) 1,604 9.4 -5.4°
Sets 07:02:43 0° 193° (SSW) 2,470 10.3 -5.0°
